CEB987 RPSP-RPMD

Flight info

Callsign CEB987
Flight time 0h 37m
Altitude 31000
Route ZENKY2R ZENKY DCT LUMVI W6 LINAO LINAO2R
Aircraft A20N/M-SDE2E3FGHIRWXY/LB1

Departure

Time 2026-04-16 14:16
Airport Bohol-Panglao International Airport (RPSP)

Arrival

Time 2026-04-16 14:54
Airport Francisco Bangoy International Airport (RPMD)
Time Latitude Longitude Altitude Speed Heading
2026-04-16 14:06 9.56852 123.77142 45 ft 0 kts 121°
2026-04-16 14:09 9.56857 123.77134 48 ft 2 kts 118°
2026-04-16 14:09 9.56866 123.77119 48 ft 2 kts 119°
2026-04-16 14:09 9.56874 123.77105 45 ft 2 kts 119°
2026-04-16 14:09 9.56882 123.77090 44 ft 2 kts 116°
2026-04-16 14:10 9.56889 123.77075 46 ft 2 kts 111°
2026-04-16 14:10 9.56894 123.77059 44 ft 2 kts 92°
2026-04-16 14:10 9.56889 123.77044 46 ft 2 kts 32°
2026-04-16 14:10 9.56886 123.77042 46 ft 0 kts 30°
2026-04-16 14:11 9.56887 123.77042 46 ft 2 kts 30°
2026-04-16 14:12 9.56915 123.77059 48 ft 8 kts 31°
2026-04-16 14:12 9.56972 123.77094 46 ft 12 kts 31°
2026-04-16 14:12 9.57062 123.77147 50 ft 18 kts 28°
2026-04-16 14:12 9.57187 123.77221 49 ft 23 kts 31°
2026-04-16 14:13 9.57270 123.77246 52 ft 7 kts 326°
2026-04-16 14:13 9.57302 123.77192 49 ft 12 kts 302°
2026-04-16 14:13 9.57357 123.77102 50 ft 17 kts 305°
2026-04-16 14:13 9.57438 123.77093 54 ft 11 kts 33°
2026-04-16 14:14 9.57524 123.77146 52 ft 18 kts 29°
2026-04-16 14:14 9.57650 123.77219 56 ft 24 kts 32°
2026-04-16 14:14 9.57806 123.77315 51 ft 29 kts 31°
2026-04-16 14:14 9.58000 123.77431 51 ft 35 kts 30°
2026-04-16 14:15 9.58216 123.77558 48 ft 24 kts 30°
2026-04-16 14:15 9.58275 123.77624 49 ft 14 kts 60°
2026-04-16 14:15 9.58342 123.77645 50 ft 8 kts 309°
2026-04-16 14:15 9.58300 123.77603 49 ft 13 kts 208°
2026-04-16 14:16 9.58221 123.77561 48 ft 9 kts 212°
2026-04-16 14:16 9.57984 123.77419 50 ft 89 kts 210°
2026-04-16 14:16 9.57196 123.76946 72 ft 169 kts 211°
2026-04-16 14:16 9.56132 123.76328 978 ft 177 kts 211°
2026-04-16 14:17 9.55049 123.75677 2120 ft 187 kts 211°
2026-04-16 14:17 9.53875 123.74961 2877 ft 208 kts 211°
2026-04-16 14:17 9.52465 123.74412 3612 ft 230 kts 185°
2026-04-16 14:17 9.50823 123.74686 4470 ft 252 kts 157°
2026-04-16 14:18 9.49250 123.75572 5434 ft 272 kts 146°
2026-04-16 14:18 9.47686 123.76680 6768 ft 276 kts 144°
2026-04-16 14:18 9.46083 123.77809 8144 ft 279 kts 145°
2026-04-16 14:18 9.44473 123.78880 9456 ft 283 kts 147°
2026-04-16 14:19 9.42755 123.79970 10240 ft 295 kts 148°
2026-04-16 14:19 9.40948 123.81083 10823 ft 321 kts 148°
2026-04-16 14:19 9.38954 123.82295 11398 ft 345 kts 148°
2026-04-16 14:19 9.36865 123.83559 12320 ft 354 kts 148°
2026-04-16 14:20 9.34724 123.84856 13300 ft 363 kts 148°
2026-04-16 14:20 9.32534 123.86183 14206 ft 370 kts 148°
2026-04-16 14:20 9.30316 123.87530 15144 ft 374 kts 148°
2026-04-16 14:20 9.28075 123.88892 16053 ft 379 kts 148°
2026-04-16 14:21 9.25801 123.90275 16930 ft 384 kts 148°
2026-04-16 14:21 9.23492 123.91679 17796 ft 389 kts 148°
2026-04-16 14:21 9.21152 123.93102 18582 ft 394 kts 148°
2026-04-16 14:21 9.18791 123.94538 19337 ft 399 kts 148°
2026-04-16 14:22 9.16418 123.96021 20084 ft 403 kts 145°
2026-04-16 14:22 9.14196 123.97775 20817 ft 407 kts 138°
2026-04-16 14:22 9.12044 123.99665 21551 ft 412 kts 139°
2026-04-16 14:22 9.09864 124.01571 22282 ft 416 kts 139°
2026-04-16 14:23 9.07660 124.03493 22982 ft 421 kts 139°
2026-04-16 14:23 9.05426 124.05438 23663 ft 426 kts 139°
2026-04-16 14:23 9.03169 124.07402 24265 ft 430 kts 140°
2026-04-16 14:23 9.00892 124.09383 24859 ft 434 kts 140°
2026-04-16 14:24 8.98595 124.11382 25431 ft 438 kts 140°
2026-04-16 14:24 8.96276 124.13400 25992 ft 442 kts 140°
2026-04-16 14:24 8.93936 124.15436 26531 ft 446 kts 140°
2026-04-16 14:24 8.91575 124.17489 27069 ft 450 kts 140°
2026-04-16 14:25 8.89195 124.19558 27598 ft 453 kts 140°
2026-04-16 14:25 8.86794 124.21646 28107 ft 457 kts 140°
2026-04-16 14:25 8.84373 124.23751 28618 ft 461 kts 140°
2026-04-16 14:25 8.81936 124.25870 29106 ft 464 kts 140°
2026-04-16 14:26 8.79477 124.28006 29565 ft 468 kts 140°
2026-04-16 14:26 8.77001 124.30157 30050 ft 471 kts 140°
2026-04-16 14:26 8.74508 124.32323 30494 ft 474 kts 140°
2026-04-16 14:26 8.73695 124.33029 30609 ft 474 kts 140°
2026-04-16 14:27 8.69498 124.36674 30878 ft 475 kts 140°
2026-04-16 14:27 8.66987 124.38855 30918 ft 475 kts 140°
2026-04-16 14:27 8.61982 124.43200 30926 ft 474 kts 140°
2026-04-16 14:28 8.56979 124.47541 30927 ft 474 kts 140°
2026-04-16 14:28 8.51976 124.51882 30931 ft 474 kts 140°
2026-04-16 14:29 8.46969 124.56223 30939 ft 474 kts 140°
2026-04-16 14:29 8.41639 124.60108 30947 ft 473 kts 153°
2026-04-16 14:30 8.35468 124.62188 30954 ft 472 kts 169°
2026-04-16 14:30 8.29026 124.63505 30966 ft 472 kts 169°
2026-04-16 14:31 8.22588 124.64837 30975 ft 473 kts 169°
2026-04-16 14:31 8.16141 124.66171 30981 ft 473 kts 169°
2026-04-16 14:32 8.09697 124.67503 30988 ft 473 kts 169°
2026-04-16 14:32 8.03247 124.68836 30997 ft 473 kts 169°
2026-04-16 14:33 7.96797 124.70169 31001 ft 473 kts 169°
2026-04-16 14:33 7.90344 124.71503 31001 ft 473 kts 169°
2026-04-16 14:34 7.87122 124.72170 30887 ft 473 kts 169°
2026-04-16 14:34 7.83904 124.72836 30654 ft 472 kts 169°
2026-04-16 14:34 7.80693 124.73500 30424 ft 470 kts 169°
2026-04-16 14:34 7.77491 124.74162 30205 ft 469 kts 169°
2026-04-16 14:35 7.74300 124.74821 29958 ft 468 kts 169°
2026-04-16 14:35 7.71119 124.75478 29685 ft 466 kts 169°
2026-04-16 14:35 7.67945 124.76134 29419 ft 464 kts 169°
2026-04-16 14:35 7.64790 124.76785 29034 ft 462 kts 169°
2026-04-16 14:36 7.61639 124.77436 28168 ft 464 kts 169°
2026-04-16 14:36 7.58499 124.78084 27446 ft 458 kts 169°
2026-04-16 14:36 7.55455 124.78713 26676 ft 453 kts 169°
2026-04-16 14:36 7.52359 124.79353 25894 ft 448 kts 169°
2026-04-16 14:37 7.49288 124.79987 25144 ft 443 kts 169°
2026-04-16 14:37 7.46322 124.80599 24404 ft 439 kts 169°
2026-04-16 14:37 7.43303 124.81222 23652 ft 435 kts 169°
2026-04-16 14:37 7.40387 124.81824 22860 ft 431 kts 169°
2026-04-16 14:38 7.37476 124.82424 22133 ft 424 kts 169°
2026-04-16 14:38 7.34608 124.83032 21352 ft 419 kts 166°
2026-04-16 14:38 7.31919 124.84114 20638 ft 415 kts 151°
2026-04-16 14:38 7.29622 124.85843 19930 ft 411 kts 135°
2026-04-16 14:39 7.27883 124.88096 19220 ft 406 kts 119°
2026-04-16 14:39 7.26827 124.90713 18533 ft 401 kts 103°
2026-04-16 14:39 7.26548 124.93477 17824 ft 395 kts 86°
2026-04-16 14:39 7.27014 124.96165 17183 ft 387 kts 75°
2026-04-16 14:40 7.27735 124.98754 16503 ft 382 kts 73°
2026-04-16 14:40 7.28397 125.01327 15783 ft 378 kts 76°
2026-04-16 14:40 7.28938 125.03901 15123 ft 374 kts 78°
2026-04-16 14:40 7.29388 125.06465 14455 ft 370 kts 80°
2026-04-16 14:41 7.29785 125.09020 13779 ft 367 kts 81°
2026-04-16 14:41 7.30157 125.11547 13122 ft 362 kts 81°
2026-04-16 14:41 7.30518 125.14036 12473 ft 357 kts 81°
2026-04-16 14:41 7.30873 125.16493 11873 ft 351 kts 81°
2026-04-16 14:42 7.31223 125.18905 11237 ft 347 kts 81°
2026-04-16 14:42 7.31572 125.21302 10631 ft 343 kts 81°
2026-04-16 14:42 7.31917 125.23672 10151 ft 337 kts 81°
2026-04-16 14:42 7.32248 125.25944 9990 ft 320 kts 81°
2026-04-16 14:43 7.32562 125.28103 9834 ft 304 kts 81°
2026-04-16 14:43 7.32865 125.30190 9450 ft 298 kts 81°
2026-04-16 14:43 7.33157 125.32193 9179 ft 289 kts 81°
2026-04-16 14:43 7.33447 125.34188 8771 ft 286 kts 81°
2026-04-16 14:44 7.33665 125.36171 8341 ft 284 kts 91°
2026-04-16 14:44 7.33178 125.38074 7901 ft 282 kts 117°
2026-04-16 14:44 7.31911 125.39556 7473 ft 281 kts 144°
2026-04-16 14:44 7.30139 125.40322 7055 ft 279 kts 167°
2026-04-16 14:45 7.28879 125.40587 6762 ft 279 kts 169°
2026-04-16 14:45 7.26758 125.40979 6273 ft 278 kts 169°
2026-04-16 14:45 7.24855 125.41335 5830 ft 277 kts 169°
2026-04-16 14:45 7.22979 125.41706 5593 ft 278 kts 168°
2026-04-16 14:46 7.21118 125.42089 5508 ft 266 kts 168°
2026-04-16 14:46 7.19355 125.42460 5445 ft 252 kts 168°
2026-04-16 14:46 7.17678 125.42815 5329 ft 241 kts 167°
2026-04-16 14:46 7.16045 125.43162 5063 ft 239 kts 167°
2026-04-16 14:47 7.14420 125.43506 4778 ft 238 kts 167°
2026-04-16 14:47 7.12803 125.43850 4482 ft 237 kts 167°
2026-04-16 14:47 7.11188 125.44192 4181 ft 237 kts 167°
2026-04-16 14:47 7.09574 125.44534 3865 ft 237 kts 168°
2026-04-16 14:48 7.07958 125.44881 3548 ft 237 kts 165°
2026-04-16 14:48 7.06462 125.45507 3244 ft 237 kts 148°
2026-04-16 14:48 7.05179 125.46535 2928 ft 236 kts 139°
2026-04-16 14:48 7.03925 125.47636 2608 ft 236 kts 139°
2026-04-16 14:49 7.03102 125.48352 2403 ft 236 kts 140°
2026-04-16 14:49 7.01959 125.49507 2228 ft 230 kts 122°
2026-04-16 14:49 7.01638 125.51009 2198 ft 218 kts 82°
2026-04-16 14:49 7.02421 125.52747 2222 ft 194 kts 55°
2026-04-16 14:50 7.03232 125.53735 2190 ft 172 kts 49°
2026-04-16 14:50 7.03963 125.54566 2191 ft 144 kts 51°
2026-04-16 14:50 7.04589 125.55297 2129 ft 134 kts 50°
2026-04-16 14:50 7.04994 125.55769 2003 ft 130 kts 51°
2026-04-16 14:51 7.05587 125.56460 1831 ft 129 kts 51°
2026-04-16 14:51 7.06370 125.57372 1614 ft 131 kts 51°
2026-04-16 14:51 7.06961 125.58060 1449 ft 129 kts 51°
2026-04-16 14:51 7.07550 125.58747 1281 ft 129 kts 51°
2026-04-16 14:53 7.11436 125.63268 223 ft 127 kts 51°
2026-04-16 14:53 7.12006 125.63939 111 ft 125 kts 52°
2026-04-16 14:54 7.12459 125.64484 98 ft 97 kts 50°
2026-04-16 14:54 7.12709 125.64762 101 ft 42 kts 48°
2026-04-16 14:54 7.12847 125.64911 102 ft 19 kts 25°
2026-04-16 14:54 7.12919 125.64880 102 ft 5 kts 328°
2026-04-16 14:55 7.12969 125.64840 101 ft 13 kts 321°
2026-04-16 14:55 7.13021 125.64790 101 ft 1 kts 262°
2026-04-16 14:55 7.13005 125.64753 101 ft 10 kts 245°
2026-04-16 14:55 7.12965 125.64706 101 ft 8 kts 247°
2026-04-16 14:56 7.12978 125.64690 101 ft 4 kts 324°
2026-04-16 14:56 7.13004 125.64673 101 ft 5 kts 321°
2026-04-16 14:56 7.13024 125.64657 101 ft 1 kts 321°
2026-04-16 14:56 7.13032 125.64650 101 ft 2 kts 320°
2026-04-16 14:57 7.13036 125.64647 101 ft 0 kts 320°